User: anonymous
Location: Oshawa
(43.9000°N, 78.8670°W)
Time: 23:18:31
(UTC-04:00)
Language:

Iridium 98 - Orbit

View from above orbital plane
View from above orbital plane
View from above satellite
View from above satellite

Ground track
Ground track

The orbit data is extracted from the following two-line orbital elements,

1 27451U 02031B   14113.50964122  .00000445  00000-0  12711-3 0  2850
2 27451 086.4438 143.2822 0002272 081.7847 076.1450 14.42950145626275
Epoch (UTC): 23 April 2014 12:13:53
Eccentricity: 0.0002272
inclination: 86.4438°
perigee height: 747 km
apogee height: 750 km
right ascension of ascending node: 143.2822°
argument of perigee: 81.7847°
revolutions per day: 14.42950145
mean anomaly at epoch: 76.1450°
orbit number at epoch: 62627

The dashed part of the orbit path shows where the satellite is in the earth's shadow,  

DLR